EW7614 Weather Reports


Display with metric or nautical units.
time (UTC)temp
F
wind
direction
speed
MPH
gust
MPH
rain 1hr
in
rain 24hr
in
rain mn
in
humidity
%
barometer
mb
20260505101518 70 194 2.0 14.0 0.00 0.00 0.00 35 1003.9
20260505100115 70 203 1.0 10.0 0.00 0.00 0.00 35 1003.9
20260505094531 70 170 5.0 14.0 0.00 0.00 0.00 33 1004.1
20260505093121 71 64 0.0 4.0 0.00 0.00 0.00 37 1004.1
20260505091540 70 89 1.0 9.0 0.00 0.00 0.00 38 1004.2
20260505090124 69 333 0.0 3.0 0.00 0.00 0.00 41 1004.3
20260505084546 67 63 0.0 3.0 0.00 0.00 0.00 45 1004.6
20260505083128 65 299 0.0 4.0 0.00 0.00 0.00 47 1004.7
20260505081551 65 103 0.0 4.0 0.00 0.00 0.00 52 1005.0
20260505080000 63 240 0.0 3.0 0.00 0.00 0.00 54 1005.4
20260505074541 61 300 0.0 1.0 0.00 0.00 0.00 55 1005.6
20260505073119 58 220 0.0 2.0 0.00 0.00 0.00 58 1005.8
20260505071534 57 308 0.0 2.0 0.00 0.00 0.00 59 1006.0
20260505070113 56 135 0.0 1.0 0.00 0.00 0.00 63 1006.1
20260505064520 54 271 0.0 2.0 0.00 0.00 0.00 69 1006.3
20260505063103 54 319 0.0 2.0 0.00 0.00 0.00 64 1006.5
20260505061502 51 55 0.0 2.0 0.00 0.00 0.00 74 1006.5
20260505060047 49 50 0.0 1.0 0.00 0.00 0.00 78 1006.5
20260505054501 47 320 0.0 1.0 0.00 0.00 0.00 77 1006.7
20260505053111 46 306 0.0 0.0 0.00 0.00 0.00 78 1006.8
20260505051634 45 306 0.0 0.0 0.00 0.00 0.00 80 1006.8
20260505041631 39 192 0.0 2.0 0.00 0.00 0.00 86 1007.2
20260505040045 43 76 0.0 1.0 0.00 0.00 0.00 82 1007.1
20260505034502 41 214 0.0 0.0 0.00 0.00 0.00 83 1007.2
20260505033057 42 209 0.0 0.0 0.00 0.00 0.00 84 1007.1
20260505031517 42 209 0.0 0.0 0.00 0.00 0.00 84 1007.2
20260505030108 43 209 0.0 1.0 0.00 0.00 0.00 81 1007.3
20260505024526 43 150 0.0 0.0 0.00 0.00 0.00 83 1007.3
20260505023115 42 123 0.0 0.0 0.00 0.00 0.00 83 1007.3
20260505021536 45 120 0.0 1.0 0.00 0.00 0.00 77 1007.5
20260505020128 43 217 0.0 2.0 0.00 0.00 0.00 82 1007.7
20260505014546 44 207 0.0 1.0 0.00 0.00 0.00 81 1007.7
20260505013006 46 317 0.0 2.0 0.00 0.00 0.00 77 1007.7
20260505011612 45 222 0.0 0.0 0.00 0.00 0.00 80 1007.7
20260505010019 48 36 0.0 0.0 0.00 0.00 0.00 72 1007.7
20260505004618 46 209 0.0 1.0 0.00 0.00 0.00 79 1007.9
20260505003039 49 196 0.0 0.0 0.00 0.00 0.00 70 1007.9
20260505001509 47 196 0.0 0.0 0.00 0.00 0.00 77 1008.0
20260505000111 49 294 0.0 0.0 0.00 0.00 0.00 71 1008.0
20260504234528 50 294 0.0 0.0 0.00 0.00 0.00 72 1008.1
20260504233115 52 355 0.0 1.0 0.00 0.00 0.00 66 1008.1
20260504231534 52 76 0.0 3.0 0.00 0.00 0.00 66 1008.3
20260504230120 52 124 0.0 1.0 0.00 0.00 0.00 64 1008.3
20260504224533 52 290 0.0 2.0 0.00 0.00 0.00 66 1008.3
20260504223130 53 210 0.0 0.0 0.00 0.00 0.00 63 1008.5
20260504221545 53 146 0.0 1.0 0.00 0.00 0.00 62 1008.5
20260504220134 53 207 0.0 1.0 0.00 0.00 0.00 65 1008.6
20260504214544 54 199 0.0 0.0 0.00 0.00 0.00 63 1008.6
20260504213007 55 136 0.0 0.0 0.00 0.00 0.00 59 1008.7
20260504211557 55 247 0.0 0.0 0.00 0.00 0.00 59 1008.8
20260504210019 56 248 0.0 1.0 0.00 0.00 0.00 60 1008.8
20260504204620 57 284 0.0 0.0 0.00 0.00 0.00 56 1008.8
20260504203013 60 110 0.0 1.0 0.00 0.00 0.00 49 1008.7
20260504201554 60 68 0.0 2.0 0.00 0.00 0.00 50 1008.9
20260504200016 60 69 0.0 2.0 0.00 0.00 0.00 50 1008.9
20260504194607 60 103 0.0 4.0 0.00 0.00 0.00 51 1008.9
20260504193018 61 198 0.0 3.0 0.00 0.00 0.00 48 1008.9
20260504191615 64 113 0.0 2.0 0.00 0.00 0.00 43 1008.8
20260504190034 66 231 1.0 4.0 0.00 0.00 0.00 38 1008.8
20260504184623 65 175 3.0 6.0 0.00 0.00 0.00 37 1008.6
20260504183038 66 230 0.0 3.0 0.00 0.00 0.00 38 1008.5
20260504181620 67 286 4.0 12.0 0.00 0.00 0.00 34 1008.4
20260504180024 67 288 8.0 15.0 0.00 0.00 0.00 35 1008.3
20260504174606 66 242 0.0 6.0 0.00 0.00 0.00 38 1008.1
20260504173021 68 87 0.0 1.0 0.00 0.00 0.00 37 1007.9
20260504171604 68 267 4.0 9.0 0.00 0.00 0.00 33 1007.8
20260504150121 74 308 0.0 2.0 0.00 0.00 0.00 28 1007.2